Saturday, July 21, 2018, 10:44 PM EDT
Back to Local

KABE, Lehigh Valley International Airport

Location: Allentown, PA, United States Lat: 40.65
Local Time: 10:44 PM EDT ( 2:44 GMT) Lon: -75.45
Time Zone: US/Eastern Elev: 393 ft

Show me the last for .
Show Decoded

2018-07-21 21:51 METAR KABE 220151Z 06016KT 9SM -RA OVC020 17/14 A2989 RMK AO2 SLP119 P0003
                 T01720144 =
2018-07-21 20:51 METAR KABE 220051Z 06013G20KT 5SM -RA OVC028 18/16 A2991 RMK AO2 SLP125 P0009
                 T01830156 =
2018-07-21 20:24 METAR KABE 220024Z 06013KT 4SM -RA BR OVC032 18/16 A2991 RMK AO2 P0007 T01830161
                 =
2018-07-21 20:09 METAR KABE 220009Z 05011KT 2SM RA BR FEW007 BKN033 OVC043 18/16 A2992 RMK AO2
                 P0005 T01830161 =
2018-07-21 20:01 METAR KABE 220001Z 06011KT 2 1/2SM RA BR SCT007 BKN017 OVC043 18/16 A2993 RMK
                 AO2 P0001 T01830161 =
2018-07-21 19:51 METAR KABE 212351Z 05012KT 3SM -RA BR SCT007 BKN011 OVC050 19/17 A2993 RMK AO2
                 SLP133 P0015 60031 T01890167 10233 20183 58017 =
2018-07-21 19:33 METAR KABE 212333Z 09010KT 3SM RA BR SCT009 BKN013 OVC044 18/16 A2994 RMK AO2
                 P0012 T01830161 =
2018-07-21 19:25 METAR KABE 212325Z 08010KT 2 1/2SM +RA BR BKN011 BKN019 OVC047 18/16 A2995 RMK
                 AO2 P0008 T01830161 =
2018-07-21 19:10 METAR KABE 212310Z 09011KT 3SM RA BR FEW009 BKN017 OVC047 18/16 A2995 RMK AO2
                 P0004 T01830161 =
2018-07-21 19:02 METAR KABE 212302Z 08011KT 4SM RA FEW009 SCT013 OVC050 19/16 A2995 =
2018-07-21 18:51 METAR KABE 212251Z 08010KT 4SM RA BR BKN013 BKN055 OVC070 19/17 A2996 RMK AO2
                 SLP143 P0009 T01890167 =
2018-07-21 17:51 METAR KABE 212151Z 08008KT 5SM -RA SCT055 BKN065 OVC110 20/16 A2997 RMK AO2
                 SLP148 P0007 T02000161 =
2018-07-21 16:51 METAR KABE 212051Z 09011KT 7SM -RA OVC060 21/16 A2998 RMK AO2 RAB12 SLP150 P0000
                 60000 T02110156 56013 =
2018-07-21 15:51 METAR KABE 211951Z 11013G18KT 10SM OVC060 23/14 A2998 RMK AO2 SLP150 T02280139 =
2018-07-21 14:51 METAR KABE 211851Z 08013KT 10SM FEW035 BKN080 OVC100 23/14 A3000 RMK AO2 RAE29
                 SLP155 P0000 T02330144 =
2018-07-21 13:51 METAR KABE 211751Z 09012KT 9SM -RA FEW050 FEW080 BKN110 22/16 A3002 RMK AO2
                 RAB04 SLP162 P0000 60000 T02220156 10250 20206 58015 =
2018-07-21 12:51 METAR KABE 211651Z 11014G19KT 10SM BKN100 23/14 A3003 RMK AO2 SLP167 T02330139 =
2018-07-21 11:51 METAR KABE 211551Z 09011KT 10SM FEW036 OVC090 24/14 A3005 RMK AO2 SLP173
                 T02390144 =
2018-07-21 10:51 METAR KABE 211451Z 10010KT 10SM FEW050 24/14 A3006 RMK AO2 SLP177 T02390139
                 58002 =
2018-07-21 09:51 METAR KABE 211351Z 12012G18KT 10SM FEW029 23/14 A3007 RMK AO2 SLP178 T02330144 =
2018-07-21 08:51 METAR KABE 211251Z 11010KT 10SM FEW029 FEW060 23/14 A3007 RMK AO2 SLP180
                 T02280144 =
2018-07-21 07:51 METAR KABE 211151Z 09007KT 10SM CLR 21/15 A3007 RMK AO2 SLP179 T02060150 10206
                 20167 55001 =
2018-07-21 06:51 METAR KABE 211051Z 09007KT 9SM CLR 19/15 A3006 RMK AO2 SLP178 T01890150 =
2018-07-21 05:51 METAR KABE 210951Z AUTO 07006KT 9SM CLR 18/14 A3006 RMK AO2 SLP177 T01780144 =
2018-07-21 04:51 METAR KABE 210851Z 06006KT 9SM CLR 17/14 A3007 RMK AO2 SLP180 T01720139 58007 =
2018-07-21 03:51 METAR KABE 210751Z 06007KT 10SM CLR 18/14 A3008 RMK AO2 SLP184 T01830144 =
2018-07-21 02:51 METAR KABE 210651Z 08005KT 10SM SCT032 19/15 A3008 RMK AO2 SLP184 T01940150 =
2018-07-21 01:51 METAR KABE 210551Z 11003KT 10SM CLR 21/14 A3009 RMK AO2 SLP187 T02060144 10267
                 20206 56007 =
2018-07-21 00:51 METAR KABE 210451Z 12006KT 10SM CLR 21/15 A3010 RMK AO2 SLP189 T02110150
                 403060150 =
2018-07-20 23:51 METAR KABE 210351Z 13005KT 10SM CLR 22/14 A3010 RMK AO2 SLP189 T02170144 =
2018-07-20 22:51 METAR KABE 210251Z 12006KT 10SM CLR 22/14 A3011 RMK AO2 SLP194 T02220144 53011 =

Support USWX by starting your Amazon purchase here.